Regional Weather Roundup
Issued by NWS

Home | Current Version | Previous Version | Graphics & Text | Print | Product List | Glossary On
Versions: 1 2 3 4 5 6 7 8 9 10 11 12 13 14 15 16 17 18 19 20 21 22 23 24 25 26 27 28 29 30 31 32 33 34 35 36 37 38 39 40 41 42 43 44 45 46 47 48 49 50
000
ASUS43 KDMX 140207
RWRIA

WEATHER ROUNDUP FOR IOWA
NATIONAL WEATHER SERVICE DES MOINES IA
900 PM CDT SUN JUL 13 2014

NOTE: "FAIR" INDICATES FEW OR NO CLOUDS BELOW 12,000 FEET WITH NO
SIGNIFICANT WEATHER AND/OR OBSTRUCTIONS TO VISIBILITY.

* - THESE STATIONS ARE NOT NWS STATIONS...THUS NOT UNDER NWS
QUALITY CONTROL.  THEY ALSO DO NOT REPORT WEATHER SUCH
AS PRECIPITATION OR FOG.

IAZ001>003-012>014-020>022-031>034-043>046-140300-
   NORTHWEST IOWA

CITY           SKY/WX    TMP DP  RH WIND       PRES   REMARKS
CARROLL *      CLEAR     70  66  88 SW6       29.95F
CHEROKEE *     RAIN      73  68  83 N9        29.96R
DENISON *      CLEAR     73  68  83 CALM      29.95S
LE MARS *      CLEAR     73  68  83 W5        29.96R
ORANGE CITY *  MOCLDY    77  61  57 N6        29.97R
SHELDON *      PTCLDY    70  61  73 NW6       29.96R
SIOUX CITY     CLEAR     75  69  81 W6        29.95S
SPENCER        MOCLDY    71  62  73 NW7       29.95S
STORM LAKE *   CLOUDY    72  68  88 W3        29.96S
$$

IAZ055>058-069>071-079>083-090>094-140300-
   SOUTHWEST IOWA

CITY           SKY/WX    TMP DP  RH WIND       PRES   REMARKS
ATLANTIC *     CLEAR     73  70  88 W5        29.96S
AUDUBON *      CLEAR     75  70  83 W3        29.99R
CLARINDA *     CLEAR     73  72  94 CALM      29.98S
COUNCIL BLFS *   N/A     79  73  83 CALM      29.97S HX  82
CRESTON *      CLOUDY    77  70  78 W5        29.98S
HARLAN  *      CLEAR     72  68  88 W6        30.01R
LAMONI         CLOUDY    78  69  73 W3        29.96S HX  80
RED OAK *      CLEAR     75  72  88 CALM      29.97S
SHENANDOAH *   CLEAR     75  70  83 CALM      29.98S
$$

IAZ047>049-059>061-072>074-084-140300-
   CENTRAL IOWA

CITY           SKY/WX    TMP DP  RH WIND       PRES   REMARKS
AMES           CLEAR     71  66  84 W5        29.94S
ANKENY *       CLEAR     77  66  69 W3        29.94R
CHARITON *     CLEAR     75  68  78 CALM      29.96S
DES MOINES     PTCLDY    79  63  57 W5        29.94S HX  80
GRINNELL*      CLEAR     72  66  82 SW5       29.94S
KNOXVILLE *    CLEAR     75  66  73 SW5       29.93S
MARSHALLTOWN   CLEAR     72  65  78 W3        29.92F
PELLA *        CLEAR     74  68  81 CALM      29.95S
PERRY *          N/A     71  68  89 W5        29.95F
$$

IAZ004>006-015-016-023>025-035-036-140300-
   NORTH CENTRAL IOWA

CITY           SKY/WX    TMP DP  RH WIND       PRES   REMARKS
ALGONA *       PTCLDY    73  63  68 NW6       29.94S
CLARION *      MOCLDY    70  66  88 SW6       29.93S
ESTHERVILLE    CLEAR     70  60  70 NW6       29.94S
FORT DODGE *   MOCLDY    72  63  73 W3        29.94S
MASON CITY     PTCLDY    70  60  70 NW6       29.94S
FOREST CITY *    N/A     68  59  73 NW6       29.93S
IOWA FALLS *     N/A     70  64  82 SW6       29.94S
$$

IAZ007>011-017>019-026>030-037>042-050>054-066-140300-
   NORTHEAST IOWA

CITY           SKY/WX    TMP DP  RH WIND       PRES   REMARKS
CEDAR RAPIDS   CLEAR     73  68  84 W3        29.91F
CHARLES CITY * CLEAR     70  63  78 W5        29.92S
CLINTON *      CLOUDY    70  68  94 W5        29.94S
DECORAH *        N/A    N/A N/A N/A MISG        N/A
DUBUQUE        CLEAR     69  59  70 NW5       29.93S
MONTICELLO *   CLEAR     70  63  78 CALM      29.91F
OELWEIN *      CLEAR     72  72 100 CALM      29.92F
WATERLOO       CLEAR     74  62  66 W5        29.90F
$$

IAZ064-065-067-068-078-140300-
   EAST CENTRAL IOWA

CITY           SKY/WX    TMP DP  RH WIND       PRES   REMARKS
DAVENPORT        N/A     71  66  84 SW3       29.93S
IOWA CITY      CLEAR     72  66  81 SW3       29.93S
MT. PLEASANT * CLOUDY    72  68  88 SE3       29.94S
MUSCATINE *    MOCLDY    73  68  83 S5        29.93R
QUAD CITIES    CLOUDY    72  66  81 SW3       29.92R
$$

IAZ062-063-075>077-085>089-095>099-140300-
   SOUTHEAST IOWA

CITY           SKY/WX    TMP DP  RH WIND       PRES   REMARKS
BURLINGTON     PTCLDY    75  67  76 N7        29.94R
FAIRFIELD *    MOCLDY    73  68  83 CALM      29.94S
FORT MADISON * CLEAR     75  70  83 N3        29.95R
KEOKUK *       CLEAR     77  73  88 CALM      29.93S
OSKALOOSA *      N/A     72  68  88 SW3       29.94S
CENTERVILLE *    N/A     72  70  94 CALM      29.97F
OTTUMWA        PTCLDY    72  68  87 S5        29.94S
WASHINGTON *   CLOUDY    72  70  94 SW5       29.93S
$$

ABBREVIATIONS USED IN REMARKS
   TC - TEMPERATURES IN CELSIUS
  WCI - WIND CHILL INDEX
   HX - HEAT INDEX
  VSB - VISIBILITY
$$



USA.gov is the U.S. government's official web portal to all federal, state and local government web resources and services.